Home > Weather > Vincennes > Past weeks

Flag for USA Weather for the Past 2 Weeks in Vincennes, Indiana, USA

Now
55 °F

Overcast.


Feels Like: 53 °F
Forecast: 54 / 63 °F
Wind: 7 mph from Northwest

Location: Lawrenceville-Vincennes International Airport

Current Time: May 2, 2016 at 9:39:28 AM

Latest Report: May 2, 2016 at 8:53 AM


Visibility: 10 mi

Pressure: 30.02 "Hg

Humidity: 80%

Dew Point: 49 °F

Location of VincennesLocation

Historic Weather in Vincennes — Graph

°F

Vincennes Temperature Yesterday

Maximum temperature yesterday: 78 °F (at 3:53 PM)
Minimum temperature yesterday: 58 °F (at 6:53 AM)
Average temperature yesterday: 68 °F

High & Low Weather Summary for the Past Weeks

 TemperatureHumidityPressure
High82 °F (Apr 17, 5:53 PM)100% (Apr 24, 3:01 AM)30.37 "Hg (Apr 24, 3:01 AM)
Low44 °F (Apr 24, 6:53 AM)23% (Apr 17, 3:53 PM)29.69 "Hg (Apr 27, 8:53 PM)
Average65 °F73%29.97 "Hg
* Reported Apr 17 7:53 AM — May 2 7:53 AM, Vincennes, Weather by CustomWeather, © 2016

Note: Actual official high and low records may vary slightly from our data, if they occured in-between our weather recording intervals... More about our weather records

Advertising

Vincennes Weather History for the Previous 24 Hours

Scroll right to see more
 ConditionsComfort  
Time TempWeatherWind HumidityBarometerVisibility
7:53 AM
Mon, May 2
55 °FOvercast.3 mph83%30.01 "Hg10 mi
6:53 AM54 °FPassing clouds.8 mph86%30.01 "Hg10 mi
5:53 AM55 °FPassing clouds.9 mph87%29.99 "Hg10 mi
5:02 AM54 °FPassing clouds.7 mph90%29.99 "Hg8 mi
3:53 AM56 °FPassing clouds.9 mph87%29.98 "Hg10 mi
2:53 AM58 °FPassing clouds.8 mph87%29.98 "Hg10 mi
1:53 AM58 °FPassing clouds.9 mph87%29.96 "Hg10 mi
12:53 AM59 °FPassing clouds.14 mph87%29.95 "Hg10 mi
11:53 PM
Sun, May 1
61 °FMostly cloudy.18 mph83%29.93 "Hg10 mi
10:53 PM65 °FOvercast.16 mph94%29.91 "Hg10 mi
9:59 PM64 °FPartly cloudy.13 mph94%29.89 "Hg10 mi
8:53 PM73 °FPartly sunny.3 mph64%29.83 "Hg10 mi
7:53 PM75 °FSunny.9 mph62%29.84 "Hg10 mi
6:53 PM77 °FScattered clouds.8 mph56%29.85 "Hg10 mi
5:53 PM78 °FPassing clouds.5 mph58%29.85 "Hg10 mi
4:53 PM78 °FScattered clouds.10 mph56%29.86 "Hg10 mi
3:53 PM78 °FPartly sunny.7 mph60%29.88 "Hg10 mi
2:53 PM76 °FScattered clouds.8 mph60%29.90 "Hg10 mi
1:53 PM75 °FSunny.3 mph64%29.92 "Hg10 mi
12:53 PM74 °FSunny.3 mph64%29.92 "Hg10 mi
11:53 AM72 °FSunny.No wind68%N/A10 mi
10:53 AM69 °FSunny.5 mph73%N/A10 mi
9:53 AM67 °FSunny.No wind79%N/A10 mi
Weather by CustomWeather, © 2016

See weather overviewHow to use our weather pages